Location: Unspecified
(0.0000°N, 0.0000°E)
Time: 18:57:42
(UTC+00:00)

Vanguard 2 Rocket - Pass Details

Date: 19 January 2020
Orbit: 554 x 3327 km, 32.9° (Epoch: 20 February)

Event Time Altitude Azimuth Distance (km) Brightness Sun altitude
Rises 15:49:48 0° 290° (WNW) 6,818 11.9 32.7°
Reaches altitude 10° 15:54:17 10° 286° (WNW) 6,016 11.9 31.7°
Maximum altitude 16:13:19 51° 215° (SW) 3,813 11.2 27.3°
Drops below altitude 10° 16:30:21 10° 143° (SE) 5,389 10.7 23.4°
Sets 16:34:10 0° 137° (SE) 6,091 10.9 22.5°
